Regional Weather Roundup
Issued by NWS Jackson, KY

Home | Current Version | Previous Version | Text Only | Print | Product List | Glossary Off
Versions: 1 2 3 4 5 6 7 8 9 10 11 12 13 14 15 16 17 18 19 20 21 22 23 24 25 26 27 28 29 30 31 32 33 34 35 36 37 38 39 40 41 42 43 44 45 46 47 48 49 50

000
ASUS43 KJKL 092010
RWRJKL

EAST KENTUCKY HOURLY WEATHER ROUNDUP
NATIONAL WEATHER SERVICE JACKSON KY
300 PM EST TUE FEB 09 2016

NOTE: "FAIR" INDICATES FEW OR NO CLOUDS BELOW 12,000 FEET WITH
NO SIGNIFICANT WEATHER AND/OR OBSTRUCTIONS TO VISIBILITY.

* THESE REPORTS ARE NOT UNDER NWS QUALITY CONTROL AND MAY NOT
  REPORT WEATHER SUCH AS PRECIPITATION AND FOG.

KYZ079-080-083-085-087-088-110-112-115-119-120-092100
...EASTERN KENTUCKY...

CITY           SKY/WX    TMP DP  RH WIND       PRES   REMARKS
JACKSON        CLOUDY    23  12  62 VRB7      29.77R WCI  15
LONDON         CLOUDY    23  13  65 W13       29.81R WCI  11
SOMERSET*      CLOUDY    23  14  68 W9        29.86R WCI  13
MONTICELLO*    FLURRIES  25  16  68 W12G23    29.86R WCI  14
WILLIAMSBURG*  CLOUDY    25  16  68 CALM      29.82R
MIDDLESBORO*   FLURRIES  26  16  68 NW3       29.81R
HARLAN APT*    CLOUDY    23  16  74 SW9       29.77R WCI  13
HAZARD APT*    CLOUDY   N/A N/A N/A W9        29.78R
BLACK MTN*       N/A     12  10  92 W2          N/A
BIG SANDY*     FLURRIES  23  14  68 W9        29.76R WCI  13
MOREHEAD APT*  LGT SNOW  25  16  68 W9G15     29.79R WCI  15
$$

KYZ035-036-041-042-044-050-067-078-099-092100
...CENTRAL KENTUCKY...

CITY           SKY/WX    TMP DP  RH WIND       PRES   REMARKS
MT STERLING*   FLURRIES  25  19  80 W10G17    29.81R WCI  15
DANVILLE*      FLURRIES  23  16  74 W8        29.83R WCI  14
RICHMOND*      CLOUDY    23  16  74 W14G21    29.82R WCI  11
LEXINGTON      CLOUDY    24  14  65 W12       29.81R WCI  13
$$

KYZ091>093-OHZ055-061-077-WVZ005-015-034-035-042-092100
...SOUTHERN OHIO/WEST VIRGINIA...

CITY           SKY/WX    TMP DP  RH WIND       PRES   REMARKS
COVINGTON      LGT SNOW  23  18  80 W14       29.77R WCI  11
COLUMBUS       CLOUDY    25  17  72 W13G20    29.68R WCI  14
DAYTON         LGT SNOW  23  19  85 W18       29.72R FOG     WCI   9
WILMINGTON     LGT SNOW  22  17  81 W18       29.71S WCI   7
HUNTINGTON     LGT SNOW  25  18  74 W14       29.76R WCI  13
CHARLESTON     LGT SNOW  24  17  74 W9G18     29.73R WCI  14
PINEVILLE*     LGT SNOW  23  15  70 MISG      29.74R
BECKLEY        LGT SNOW  19  12  74 W14G20    29.62R WCI   6
$$

VAZ002-007-008-TNZ017-027-036-066-071-092100
...SOUTHWEST VIRGINIA/EAST TENNESSEE...

CITY           SKY/WX    TMP DP  RH WIND       PRES   REMARKS
BRISTOL        CLOUDY    25  13  60 W14       29.75R WCI  13
KNOXVILLE      CLOUDY    29  15  56 W17       29.82S WCI  17
OAK RIDGE      CLOUDY    30  14  51 W9        29.84R WCI  22
CROSSVILLE     LGT SNOW  23  15  71 NW9       29.79R WCI  13
NASHVILLE      LGT SNOW  25  16  68 NW13      29.94R VSB 1   WCI  13
$$

...KEY TO REMARKS...
VSB - VISIBILITY IN MILES
WCI - WIND CHILL INDEX
HX  - HEAT INDEX

$$



USA.gov is the U.S. government's official web portal to all federal, state and local government web resources and services.